User: anonymous   Login
Location: Holmes Observatory
(37.1039°N, 122.0513°W)
Time: 00:38:32
(UTC-07:00)
Language:

Cosmos 921 Rocket - Orbit

View from above orbital plane
View from above orbital plane
View from above satellite
View from above satellite

Ground track
Ground track

The orbit data is extracted from the following two-line orbital elements,

1 10096U 77055B   15239.04854154  .00000196  00000-0  23002-4 0  9998
2 10096 075.8331 091.9573 0042381 088.4046 272.1999 14.88312842 64030
Epoch (UTC): 27 August 2015 01:09:53
Eccentricity: 0.0042381
inclination: 75.8331°
perigee height: 573 km
apogee height: 633 km
right ascension of ascending node: 91.9573°
argument of perigee: 88.4046°
revolutions per day: 14.88312842
mean anomaly at epoch: 272.1999°
orbit number at epoch: 6403

The dashed part of the orbit path shows where the satellite is in the earth's shadow,  

DLR